Flag for Brazil Weather past 2 weeks in Teresina, Piauí, Brazil

Now
91 °F

Sunny.


Feels Like: 93 °F
Forecast: 72 / 96 °F
Wind: 6 mph from Southeast

Location: Teresina Aeroporto

Current Time: Aug 21, 2014 at 11:39:30 AM

Latest Report: Aug 21, 2014 at 11:00 AM


Visibility: 10 mi

Pressure: 29.98 "Hg

Humidity: 41%

Dew point: 64 °F

Location of TeresinaLocation

Historic Weather in Teresina — Graph

°F

Teresina temperature yesterday

Maximum temperature yesterday: 97 °F (at 3:00 PM)
Minimum temperature yesterday: 72 °F (at 6:00 AM)
Average temperature yesterday: 85 °F

Past Weeks' High & Low Weather Summary

 TemperatureHumidityPressure
High100 °F (Aug 19, 4:00 PM)100% (Aug 9, 6:00 AM)30.04 "Hg (Aug 9, 6:00 AM)
Low68 °F (Aug 13, 6:00 AM)18% (Aug 16, 5:00 PM)29.80 "Hg (Aug 9, 4:00 PM)
Average85 °F53%29.92 "Hg
* Reported Aug 6 10:00 AM — Aug 21 10:00 AM, Teresina, Weather by CustomWeather, © 2014

Note: Actual official high and low records may vary slightly from our data, if they occured in-between our weather recording intervals... More about our weather records

Advertising

Teresina weather history for previous 24 hours

 ConditionsComfort  
Time TempWeatherWind HumidityBarometerVisibility
10:00 AM
Aug 21
88 °FSunny.9 mph46%29.98 "Hg10 mi
9:00 AM86 °FSunny.6 mph52%29.98 "Hg10 mi
8:00 AM81 °FSunny.No wind74%29.98 "Hg10 mi
7:00 AM77 °FSunny.1 mph83%29.98 "Hg10 mi
6:00 AM77 °FSunny.No wind83%29.98 "Hg10 mi
5:00 AM79 °FClear.No wind74%29.95 "Hg10 mi
4:00 AM79 °FClear.No wind79%29.92 "Hg10 mi
3:00 AM79 °FClear.No wind74%29.92 "Hg10 mi
2:00 AM81 °FClear.5 mph70%29.92 "Hg10 mi
1:00 AM81 °FClear.5 mph70%29.92 "Hg10 mi
12:00 AM82 °FClear.5 mph58%29.92 "Hg10 mi
11:00 PM
Aug 20
84 °FClear.12 mph58%29.95 "Hg10 mi
10:00 PM84 °FClear.No wind55%29.92 "Hg10 mi
9:00 PM86 °FClear.No wind52%29.92 "Hg10 mi
8:00 PM88 °FClear.No wind49%29.89 "Hg10 mi
7:00 PM88 °FClear.2 mph49%29.86 "Hg10 mi
6:00 PM95 °FClear.No wind30%29.86 "Hg10 mi
5:00 PM97 °FPassing clouds.2 mph25%29.86 "HgN/A
4:00 PM97 °FPassing clouds.1 mph30%29.86 "HgN/A
3:00 PM97 °FPassing clouds.2 mph30%29.86 "HgN/A
2:00 PM95 °FPassing clouds.6 mph32%29.86 "HgN/A
1:00 PM93 °FPassing clouds.6 mph34%29.89 "HgN/A
12:00 PM93 °FSunny.5 mph34%29.95 "Hg10 mi
11:00 AM91 °FSunny.8 mph38%29.95 "Hg10 mi
Weather by CustomWeather, © 2014

See weather overviewHow to use our weather pages